Regional Weather Roundup
Issued by NWS

Home | Current Version | Previous Version | Graphics & Text | Print | Product List | Glossary On
Versions: 1 2 3 4 5 6 7 8 9 10 11 12 13 14 15 16 17 18 19 20 21 22 23 24 25 26 27 28 29 30 31 32 33 34 35 36 37 38 39 40 41 42 43 44 45 46 47 48 49 50
000
ASUS45 KBOU 301607
RWRCO

WEATHER ROUNDUP FOR COLORADO
NATIONAL WEATHER SERVICE DENVER/BOULDER CO
1000 AM MDT SAT MAY 30 2015

NOTE: "FAIR" INDICATES FEW OR NO CLOUDS BELOW 12000 FEET WITH NO
SIGNIFICANT WEATHER AND/OR OBSTRUCTIONS TO VISIBILITY.

COZ001>005-013-030-031-301700-
...NORTHWEST COLORADO...

CITY           SKY/WX    TMP DP  RH WIND       PRES   REMARKS
CRAIG          SUNNY     60  42  51 E9        30.30S
HAYDEN         SUNNY     55  37  50 E6        30.31S
MEEKER         SUNNY     59  37  44 CALM      30.31S
MOUNT WERNER   NOT AVBL
STEAMBOAT SPGS SUNNY     51  39  62 CALM      30.33F
WALDEN         SUNNY     50  36  57 SW6       30.37S
$$

COZ006>008-011-301700-
...WEST CENTRAL VALLEYS...

CITY           SKY/WX    TMP DP  RH WIND       PRES   REMARKS
GRAND JUNCTION SUNNY     65  41  41 SE9       30.24S
MONTROSE       SUNNY     66  40  38 N6        30.30F
EAGLE          SUNNY     61  45  55 CALM      30.37F
RIFLE          SUNNY     60  40  47 CALM      30.29F
DELTA          SUNNY     65  36  34 SE3       30.28F
NUCLA          SUNNY     63  37  39 CALM      30.32F
$$

COZ017>023-064>068-301700-
...SOUTHWEST COLORADO...

CITY           SKY/WX    TMP DP  RH WIND       PRES   REMARKS
DURANGO        SUNNY     61  36  39 E8        30.33S
CORTEZ         SUNNY     67  34  29 CALM      30.27F
PAGOSA SPRINGS SUNNY     58  31  35 CALM      30.39S
TELLURIDE      SUNNY     56  24  29 CALM      30.45S
WOLF CREEK PAS NOT AVBL
$$

COZ009-010-012-014-032>034-037-058>063-301700-
...CENTRAL COLORADO...

CITY           SKY/WX    TMP DP  RH WIND       PRES   REMARKS
ASPEN          SUNNY     56  34  43 N6        30.36F
BUENA VISTA    SUNNY     53  33  45 E5        30.38S
COPPER MTN     SUNNY     43  27  52 W3        30.55R
BERTHOUD PASS  FAIR      32  27  80 NW10G22   30.57R WCI  24
COTTONWOOD PAS SUNNY     52  32  46 E6        30.45S
GUNNISON       SUNNY     52  36  54 CALM      30.42S
KREMMLING      SUNNY     50  34  53 CALM      30.39F
LEADVILLE      SUNNY     47  28  47 VRB3      30.44S
MONARCH PASS   SUNNY     36  30  80 W15       30.66R
SALIDA         SUNNY     57  39  51 N6        30.44F
SUNLIGHT       SUNNY     46  34  61 CALM      30.53S
WILKERSON PASS SUNNY     41  36  81 CALM      30.54R
$$

COZ069>075-301700-
...SAN LUIS VALLEY/SANGRE DE CRISTO MOUNTAINS...

CITY           SKY/WX    TMP DP  RH WIND       PRES   REMARKS
ALAMOSA        SUNNY     57  37  47 NE6       30.38F
LA VETA PASS   MOSUNNY  N/A N/A N/A MISG      30.47F
SAGUACHE       SUNNY     54  37  54 S9        30.40S
$$

COZ035-036-038>040-301700-
...NORTHERN COLORADO FRONT RANGE...

CITY           SKY/WX    TMP DP  RH WIND       PRES   REMARKS
DENVER INTL AP MOSUNNY   60  44  55 SE8       30.29F
DMNS CITY PARK   N/A     61  45  55 SE7       30.28S
AURORA         MOSUNNY   59  43  54 E2        30.30F
FRONT RANGE AP MOSUNNY   59  45  58 CALM      30.30F
ERIE MUNI ARPT MOSUNNY   59  48  66 SE6       30.28F
BOULDER MUN AP MOSUNNY   55  46  71 CALM      30.28F
CENTENNIAL     MOSUNNY   58  45  62 VRB3      30.30S
BROOMFIELD     NOT AVBL
FORT COLLINS   MOSUNNY   57  48  72 S8        30.29S
LONGMONT       MOSUNNY   62  47  57 SE6       30.30S
$$

COZ041-046-047-076>085-087-088-301700-
...PIKES PEAK/PALMER DIVIDE AND SOUTHERN FOOTHILLS...

CITY           SKY/WX    TMP DP  RH WIND       PRES   REMARKS
COLO. SPRINGS  CLOUDY    52  46  80 S6        30.34S
A. F. ACADEMY  CLOUDY    50  45  82 S6        30.33F
ELLICOTT       PTSUNNY  N/A N/A N/A W9        30.33S
FALCON         CLOUDY    49  45  85 SW3       30.36S
FORT CARSON    NOT AVBL
LIMON          SUNNY     54  45  71 S7        30.31F
MONUMENT HILL  SUNNY     55  43  62 SE3       30.34S
TRINIDAD       SUNNY     57  48  72 SE5       30.32S
$$

COZ042>045-048>051-090-091-301700-
...NORTHEAST COLORADO...

CITY           SKY/WX    TMP DP  RH WIND       PRES   REMARKS
GREELEY ARPT   SUNNY     57  48  72 SE6       30.29F
AKRON          CLOUDY    50  45  83 SE7       30.31S
BURLINGTON     CLOUDY    50  45  83 N9        30.32S
WRAY           CLOUDY    52  43  71 CALM      30.33S
STERLING       CLOUDY    52  45  76 SE5       30.30S
HOLYOKE        MOSUNNY   54  41  62 N3        30.31F
FORT MORGAN    PTSUNNY   54  45  70 SE7       30.31S
$$

COZ086-089-092>099-301700-
...SOUTHEAST COLORADO...

CITY           SKY/WX    TMP DP  RH WIND       PRES   REMARKS
PUEBLO         CLOUDY    58  52  80 SE10      30.29F
LA JUNTA       CLOUDY    57  48  72 SE6       30.31S
LAMAR          CLOUDY    56  46  69 VRB3      30.30S
SPRINGFIELD      N/A     54  46  74 VRB3      30.32S
$$


USA.gov is the U.S. government's official web portal to all federal, state and local government web resources and services.